This demonstration page uses our WeatherBlox Daily Observations layout. Learn more.

Left ArrowRight Arrow

44.89941, -97.11507

Hourly Observations for March 9, 2017

Temp ( °F °C ) Dew Point ( °F °C ) Humidity (%) Winds ( mph kmh ) Pressure ( in mb ) Visibility ( mi km ) Precip ( " mm )
12:53 am 00:53 Cloudy 25 -3.9 14 -10 63 63 ENE 9 15 30.22 1023 10 16 0.00 0.00
1:53 am 01:53 Cloudy 24 -4.4 14 -10 65 65 ENE 7 11 30.22 1023 10 16 0.00 0.00
2:53 am 02:53 Cloudy 23 -5 14 -10 68 68 NE 9 15 30.24 1024 10 16 0.00 0.00
3:53 am 03:53 Cloudy 22 -5.6 14 -10 71 71 ENE 7 11 30.22 1023 10 16 0.00 0.00
4:53 am 04:53 Cloudy 21 -6.1 13 -10.6 71 71 NE 9 15 30.24 1024 10 16 0.00 0.00
5:53 am 05:53 Cloudy 20 -6.7 13 -10.6 74 74 NNE 8 13 30.27 1025 10 16 0.00 0.00
6:53 am 06:53 Partly Cloudy 20 -6.7 14 -10 78 78 NE 9 15 30.27 1025 10 16 0.00 0.00
7:53 am 07:53 Cloudy 19 -7.2 13 -10.6 77 77 NNE 9 15 30.29 1026 10 16 0.00 0.00
8:53 am 08:53 Cloudy 20 -6.7 13 -10.6 74 74 NNE 12 19 30.33 1027 10 16 0.00 0.00
9:53 am 09:53 Cloudy 20 -6.7 12 -11.1 71 71 NE 10 17 30.34 1027 10 16 0.00 0.00
10:53 am 10:53 Cloudy 22 -5.6 12 -11.1 66 66 NNE 16 26 30.35 1028 10 16 0.00 0.00
11:53 am 11:53 Cloudy 22 -5.6 9 -12.8 57 57 NNE 15 24 30.38 1029 10 16 0.00 0.00
12:53 pm 12:53 Cloudy with Light Snow 22 -5.6 12 -11.1 66 66 NNE 18 30 30.38 1029 4 6 0.00 0.03
1:29 pm 13:29 Cloudy with Light Snow 20 -6.7 12 -11.1 71 71 N 18 30 30.48 1032 3 4 0.00 0.03
1:39 pm 13:39 Cloudy with Light Snow 18 -7.8 11 -11.7 74 74 NNE 17 28 30.48 1032 2 2 0.00 0.03
1:53 pm 13:53 Cloudy with Light Snow 18 -7.8 12 -11.1 77 77 NNE 17 28 30.41 1030 1 2 0.00 0.03
2:08 pm 14:08 Cloudy with Light Snow 18 -7.8 11 -11.7 74 74 NNE 17 28 30.48 1032 2 3 0.00 0.03
2:44 pm 14:44 Cloudy with Light Snow 19 -7.2 12 -11.1 74 74 NNE 17 28 30.48 1032 4 6 0.00 0.03
2:53 pm 14:53 Cloudy with Haze 19 -7.2 12 -11.1 74 74 NNE 17 28 30.42 1030 6 10 0.00 0.03
3:04 pm 15:04 Cloudy 19 -7.2 12 -11.1 74 74 NNE 16 26 30.48 1032 9 14 0.00 0.00
3:13 pm 15:13 Cloudy 19 -7.2 11 -11.7 71 71 NNE 17 28 30.48 1032 8 13 0.00 0.00
3:27 pm 15:27 Cloudy with Haze 17 -8.3 10 -12.2 74 74 N 18 30 30.50 1033 5 8 0.00 0.00
3:50 pm 15:50 Cloudy with Light Snow 16 -9 10 -12 79 79 NNE 16 26 30.50 1033 3 4 0.00 0.03
3:53 pm 15:53 Cloudy with Haze 16 -8.9 10 -12.2 77 77 N 17 28 30.45 1031 3 5 0.00 0.03
4:53 pm 16:53 Cloudy with Haze 15 -9.4 9 -12.8 77 77 NNE 15 24 30.49 1032 5 8 0.00 0.00
5:27 pm 17:27 Cloudy with Light Snow 14 -10 8 -13.3 77 77 NNE 17 28 30.59 1036 2 3 0.00 0.03
5:46 pm 17:46 Cloudy with Haze 15 -9.4 8 -13.3 74 74 N 12 19 30.59 1036 5 8 0.00 0.03
5:53 pm 17:53 Cloudy 15 -9.4 6 -14.4 67 67 N 13 20 30.51 1033 10 16 0.00 0.03
6:53 pm 18:53 Clear 14 -10 3 -16.1 61 61 N 13 20 30.55 1034 10 16 0.00 0.00
7:53 pm 19:53 Clear 12 -11.1 3 -16.1 67 67 N 13 20 30.58 1036 10 16 0.00 0.00
8:53 pm 20:53 Clear 11 -11.7 3 -16.1 70 70 NNW 12 19 30.61 1037 10 16 0.00 0.00
9:53 pm 21:53 Clear 10 -12.2 2 -16.7 69 69 N 14 22 30.63 1037 10 16 0.00 0.00
10:53 pm 22:53 Clear 7 -13.9 1 -17.2 76 76 N 8 13 30.66 1038 10 16 0.00 0.00
11:53 pm 23:53 Clear 6 -14.4 1 -17.2 79 79 N 10 17 30.67 1039 10 16 0.00 0.00

Powered by AerisWeather